Flag for U.S.A. Weather past 2 weeks in Compton, California, U.S.A.

Now
67 °F

Overcast.


Feels Like: 67 °F
Forecast: 63 / 74 °F
Wind: 7 mph from Southwest

Location: Hawthorne Municipal Airport

Current Time: Jul 5, 2015 at 8:26:08 PM

Latest Report: Jul 5, 2015 at 7:53 PM


Visibility: 10 mi

Pressure: 29.97 "Hg

Humidity: 79%

Dew point: 60 °F

Location of ComptonLocation

Historic Weather in Compton — Graph

°F

Compton temperature yesterday

Maximum temperature yesterday: 73 °F (at 11:53 AM)
Minimum temperature yesterday: 64 °F (at 1:53 AM)
Average temperature yesterday: 68 °F

Past Weeks' High & Low Weather Summary

 TemperatureHumidityPressure
High86 °F (Jun 30, 7:53 PM)90% (Jun 26, 3:53 AM)30.04 "Hg (Jun 26, 3:53 AM)
Low62 °F (Jun 26, 3:53 AM)30% (Jun 30, 7:53 PM)29.78 "Hg (Jun 30, 7:53 PM)
Average70 °F71%29.92 "Hg
* Reported Jun 20 6:53 PM — Jul 5 6:53 PM, Compton, Weather by CustomWeather, © 2015

Note: Actual official high and low records may vary slightly from our data, if they occured in-between our weather recording intervals... More about our weather records

Advertising

Compton weather history for previous 24 hours

 ConditionsComfort  
Time TempWeatherWind HumidityBarometerVisibility
6:53 PM
Sun, Jul 5
68 °FOvercast.12 mph76%29.96 "Hg10 mi
5:53 PM68 °FOvercast.10 mph73%29.95 "Hg10 mi
4:53 PM70 °FPartly sunny.12 mph68%29.95 "Hg10 mi
3:53 PM71 °FPartly sunny.12 mph66%29.96 "Hg10 mi
2:53 PM72 °FScattered clouds.10 mph66%29.96 "Hg10 mi
1:53 PM70 °FOvercast.8 mph71%29.98 "Hg10 mi
12:53 PM70 °FOvercast.8 mph71%29.99 "Hg10 mi
11:53 AM69 °FOvercast.7 mph70%30.01 "Hg10 mi
10:53 AM68 °FOvercast.5 mph73%30.00 "Hg10 mi
9:53 AM67 °FOvercast.7 mph76%29.98 "Hg10 mi
8:53 AM67 °FOvercast.6 mph76%29.98 "Hg10 mi
7:53 AM67 °FOvercast.5 mph79%29.98 "Hg10 mi
6:53 AM67 °FOvercast.5 mph76%29.96 "Hg10 mi
5:53 AM66 °FOvercast.5 mph78%29.95 "Hg10 mi
4:53 AM66 °FOvercast.6 mph78%29.93 "Hg10 mi
3:53 AM67 °FOvercast.No wind76%29.93 "Hg10 mi
2:53 AM66 °FOvercast.No wind78%29.93 "Hg9 mi
1:53 AM66 °FOvercast.3 mph78%29.93 "Hg10 mi
12:53 AM65 °FOvercast.No wind81%29.94 "Hg10 mi
11:53 PM
Sat, Jul 4
65 °FOvercast.6 mph81%29.94 "Hg10 mi
10:53 PM65 °FOvercast.6 mph81%29.94 "Hg10 mi
9:53 PM65 °FOvercast.7 mph81%29.93 "Hg5 mi
8:53 PM65 °FOvercast.6 mph81%29.90 "Hg6 mi
8:00 PM66 °FOvercast.9 mph78%29.89 "Hg10 mi
Weather by CustomWeather, © 2015

See weather overviewHow to use our weather pages